Regional Weather Roundup
Issued by NWS Little Rock, AR

Home | Current Version | Previous Version | Text Only | Print | Product List | Glossary On
Versions: 1 2 3 4 5 6 7 8 9 10 11 12 13 14 15 16 17 18 19 20 21 22 23 24 25 26 27 28 29 30 31 32 33 34 35 36 37 38 39 40 41 42 43 44 45 46 47 48 49 50
000
ASUS44 KLZK 232005
RWRLZK

WEATHER ROUNDUP FOR ARKANSAS
NATIONAL WEATHER SERVICE LITTLE ROCK AR
200 PM CST THU FEB 23 2017

NOTE: "FAIR" INDICATES FEW OR NO CLOUDS BELOW 12,000 FEET WITH NO
SIGNIFICANT WEATHER AND/OR OBSTRUCTIONS TO VISIBILITY.

ARZ001-003-010-029-232100-
NORTHWEST ARKANSAS

CITY           SKY/WX    TMP DP  RH WIND       PRES   REMARKS
FAYETTEVILLE   SUNNY     79  50  36 S23G31    29.50F
FORT SMITH     SUNNY     87  44  22 SW13G23   29.50F
HARRISON       SUNNY     79  49  34 S18G28    29.55F
BENTONVILLE    SUNNY     81  46  30 S17G30    29.50F
ROGERS         MOSUNNY   81  48  31 S24G30    29.49F
SILOAM SPGS    MOSUNNY   79  48  34 S23G33    29.48F
HIGHFILL       MOSUNNY   81  47  30 S28G36    29.48F
SPRINGDALE     PTSUNNY   81  48  32 S20G28    29.52F
$$

ARZ004-005-016-232100-
NORTH CENTRAL ARKANSAS

CITY           SKY/WX    TMP DP  RH WIND       PRES   REMARKS
BATESVILLE     MOSUNNY   75  57  53 S13G21    29.65F
FLIPPIN        SUNNY     79  50  36 S14G26    29.54F
MTN HOME       SUNNY     78  50  37 SW14G29   29.56F
$$

ARZ040-041-232100-
WEST CENTRAL ARKANSAS

CITY           SKY/WX    TMP DP  RH WIND       PRES   REMARKS
MENA           NOT AVBL
MOUNT IDA      SUNNY     78  50  37 VRB7G16   29.59F
$$

ARZ009-017-025-026-028-232100-
NORTHEAST ARKANSAS

CITY           SKY/WX    TMP DP  RH WIND       PRES   REMARKS
CORNING        FAIR      73  61  64 S16       29.66F
JONESBORO      MOSUNNY   73  57  57 S18       29.67F
NEWPORT        MOSUNNY   74  60  61 S17       29.66F
WALNUT RIDGE   MOSUNNY   73  59  60 S21       29.65F
BLYTHEVILLE    SUNNY     75  56  51 S13G24    29.69F
$$

ARZ022-023-033-042-044-232100-
CENTRAL ARKANSAS

CITY           SKY/WX    TMP DP  RH WIND       PRES   REMARKS
LITTLE ROCK    MOSUNNY   77  58  51 S14G22    29.65F
N LITTLE ROCK    N/A     76  59  56 S10G22    29.65F
JACKSONVILLE   SUNNY     76  62  60 S10G18    29.64F
SEARCY         MOSUNNY   75  62  64 S15       29.67F
HOT SPRINGS    SUNNY     78  54  43 S13G18    29.63F
RUSSELLVILLE   SUNNY     81  49  32 MISG      29.58F
CLINTON        FAIR      77  57  50 SE15G22   29.62F HAZE
$$

ARZ036-232100-
EAST ARKANSAS

CITY           SKY/WX    TMP DP  RH WIND       PRES   REMARKS
WEST MEMPHIS   SUNNY     74  57  55 S20G26    29.69F
$$

ARZ050-053-066-070-073-232100-
SOUTHWEST ARKANSAS

CITY           SKY/WX    TMP DP  RH WIND       PRES   REMARKS
CAMDEN         SUNNY     81  55  41 S12       29.66F
TEXARKANA      SUNNY     79  51  37 S16       29.62F
EL DORADO      SUNNY     78  59  51 S10G21    29.68F
DE QUEEN       SUNNY     81  51  35 S10       29.58F
$$

ARZ056-057-069-232100-
SOUTHEAST ARKANSAS

CITY           SKY/WX    TMP DP  RH WIND       PRES   REMARKS
PINE BLUFF     SUNNY     76  57  51 S14       29.67F
STUTTGART      SUNNY     75  55  50 SE15G21   29.69F
MONTICELLO     SUNNY     76  54  46 S10G17    29.69F

$$





USA.gov is the U.S. government's official web portal to all federal, state and local government web resources and services.